This is the latest recevied weather packets stored in our database for station/object DB0OHL. If no packets are shown the sender has not sent any weather packets the latest 10 day(s).
| Time | Temp. | Humidity | Pressure | Rain* | Wind** | Luminosity | Snow |
|---|---|---|---|---|---|---|---|
| 1778025365 | 8.89° C | 99% | 1006.8 hPa | 3.56 mm | - | - | - |
| 1778024763 | 8.89° C | 99% | 1007 hPa | 3.81 mm | - | - | - |
| 1778024160 | 8.89° C | 99% | 1007.1 hPa | 3.56 mm | - | - | - |
| 1778023558 | 8.89° C | 99% | 1006.9 hPa | 3.56 mm | - | - | - |
| 1778022955 | 8.89° C | 99% | 1007 hPa | 3.3 mm | - | - | - |
| 1778022353 | 9.44° C | 99% | 1007.2 hPa | 2.29 mm | - | - | - |
| 1778021750 | 9.44° C | 99% | 1007.2 hPa | 1.78 mm | - | - | - |
| 1778021148 | 9.44° C | 99% | 1007.1 hPa | 1.52 mm | - | - | - |
| 1778020545 | 9.44° C | 99% | 1007.3 hPa | 1.27 mm | - | - | - |
| 1778019943 | 9.44° C | 99% | 1007.3 hPa | 1.02 mm | - | - | - |
| 1778019340 | 9.44° C | 99% | 1007.3 hPa | 1.02 mm | - | - | - |
| 1778018737 | 9.44° C | 99% | 1007.4 hPa | 0.51 mm | - | - | - |
| 1778018135 | 9.44° C | 99% | 1007.5 hPa | 0.51 mm | - | - | - |
| 1778017532 | 9.44° C | 99% | 1007.4 hPa | 0.25 mm | - | - | - |
| 1778016930 | 9.44° C | 99% | 1007.5 hPa | 0.25 mm | - | - | - |
| 1778016327 | 9.44° C | 99% | 1007.6 hPa | 0.25 mm | - | - | - |
| 1778015725 | 9.44° C | 99% | 1007.7 hPa | 0 mm | - | - | - |
| 1778015122 | 9.44° C | 99% | 1007.7 hPa | 0 mm | - | - | - |
| 1778014520 | 9.44° C | 99% | 1007.7 hPa | 0 mm | - | - | - |
| 1778013917 | 9.44° C | 99% | 1007.8 hPa | 0 mm | - | - | - |
| 1778013375 | 9.44° C | 99% | 1007.7 hPa | 0 mm | - | - | - |
| 1778012772 | 9.44° C | 99% | 1007.8 hPa | 0 mm | - | - | - |
| 1778012170 | 9.44° C | 99% | 1007.7 hPa | 0 mm | - | - | - |
| 1778011567 | 9.44° C | 99% | 1007.8 hPa | 0 mm | - | - | - |
| 1778010965 | 9.44° C | 99% | 1007.7 hPa | 0 mm | - | - | - |
* Rain latest hour (hover to see other rain measurements)
** Current wind speed in m/s (hover to see current wind gust speed)